Previsão horária em Barneveld

Hoje, 5 Agosto, Quinta-feira

Tempo Temperatura Precipitação Vento Pressão Humidade
00:00 +14°C° 0.1 mm 2 m/s 758 mmHg 94%
01:00 +14°C° 0 mm 2 m/s 757 mmHg 94%
02:00 +13°C° 0 mm 1 m/s 757 mmHg 94%
03:00 +13°C° 0 mm 1 m/s 757 mmHg 94%
04:00 +14°C° 0 mm 1 m/s 757 mmHg 92%
05:00 +15°C° 0 mm 1 m/s 757 mmHg 90%
06:00 +15°C° 0 mm 0 m/s 757 mmHg 88%
07:00 +18°C° 0 mm 1 m/s 756 mmHg 81%
08:00 +20°C° 0 mm 1 m/s 756 mmHg 73%
09:00 +22°C° 0 mm 1 m/s 756 mmHg 65%
10:00 +23°C° 0 mm 1 m/s 756 mmHg 61%
11:00 +24°C° 0 mm 1 m/s 755 mmHg 56%
12:00 +25°C° 0 mm 2 m/s 755 mmHg 51%
13:00 +25°C° 0 mm 2 m/s 754 mmHg 52%
14:00 +25°C° 0 mm 2 m/s 754 mmHg 52%
15:00 +25°C° 0 mm 2 m/s 754 mmHg 53%
16:00 +24°C° 0.2 mm 2 m/s 753 mmHg 60%
17:00 +23°C° 0.2 mm 2 m/s 753 mmHg 66%
18:00 +21°C° 0.2 mm 2 m/s 753 mmHg 72%
19:00 +19°C° 0 mm 2 m/s 753 mmHg 76%
20:00 +18°C° 0 mm 2 m/s 752 mmHg 80%
21:00 +17°C° 0 mm 3 m/s 752 mmHg 84%
22:00 +16°C° 0 mm 3 m/s 752 mmHg 86%
23:00 +16°C° 0 mm 3 m/s 751 mmHg 87%

Amanhã, 6 Agosto, Sexta-feira

Tempo Temperatura Precipitação Vento Pressão Humidade
00:00 +16°C° 0 mm 3 m/s 751 mmHg 89%
01:00 +16°C° 0.4 mm 3 m/s 751 mmHg 91%
02:00 +15°C° 0.4 mm 4 m/s 750 mmHg 92%
03:00 +15°C° 0.4 mm 4 m/s 750 mmHg 94%
04:00 +15°C° 0.4 mm 4 m/s 750 mmHg 94%
05:00 +17°C° 0.4 mm 4 m/s 750 mmHg 94%
06:00 +16°C° 0.4 mm 5 m/s 750 mmHg 94%
07:00 +16°C° 0.3 mm 5 m/s 750 mmHg 92%
08:00 +17°C° 0.3 mm 5 m/s 750 mmHg 89%
09:00 +17°C° 0.3 mm 6 m/s 750 mmHg 87%
10:00 +19°C° 0.4 mm 6 m/s 750 mmHg 82%
11:00 +20°C° 0.4 mm 7 m/s 750 mmHg 77%
12:00 +21°C° 0.4 mm 7 m/s 750 mmHg 72%
13:00 +21°C° 0.5 mm 7 m/s 750 mmHg 73%
14:00 +21°C° 0.5 mm 7 m/s 750 mmHg 74%
15:00 +21°C° 0.5 mm 6 m/s 751 mmHg 74%
16:00 +20°C° 0.3 mm 6 m/s 751 mmHg 75%
17:00 +19°C° 0.3 mm 6 m/s 751 mmHg 77%
18:00 +19°C° 0.3 mm 5 m/s 751 mmHg 78%
19:00 +17°C° 0 mm 5 m/s 751 mmHg 80%
20:00 +15°C° 0 mm 4 m/s 751 mmHg 83%
21:00 +14°C° 0 mm 4 m/s 752 mmHg 86%
22:00 +14°C° 0 mm 4 m/s 752 mmHg 87%
23:00 +13°C° 0 mm 4 m/s 752 mmHg 88%

Depois de amanhã, 7 Agosto, Sábado

Tempo Temperatura Precipitação Vento Pressão Humidade
00:00 +13°C° 0 mm 4 m/s 752 mmHg 89%
01:00 +13°C° 0 mm 4 m/s 752 mmHg 90%
02:00 +12°C° 0 mm 4 m/s 752 mmHg 90%
03:00 +12°C° 0 mm 4 m/s 752 mmHg 91%
04:00 +13°C° 0 mm 4 m/s 752 mmHg 90%
05:00 +13°C° 0 mm 4 m/s 752 mmHg 88%
06:00 +14°C° 0 mm 4 m/s 752 mmHg 87%
07:00 +17°C° 0 mm 4 m/s 752 mmHg 79%
08:00 +18°C° 0 mm 4 m/s 751 mmHg 71%
09:00 +20°C° 0 mm 4 m/s 751 mmHg 62%
10:00 +20°C° 0.5 mm 4 m/s 751 mmHg 63%
11:00 +21°C° 0.5 mm 5 m/s 751 mmHg 63%
12:00 +21°C° 0.5 mm 5 m/s 751 mmHg 63%
13:00 +21°C° 0.4 mm 4 m/s 751 mmHg 61%
14:00 +22°C° 0.4 mm 4 m/s 751 mmHg 58%
15:00 +22°C° 0.4 mm 3 m/s 750 mmHg 56%
16:00 +21°C° 0.2 mm 3 m/s 750 mmHg 62%
17:00 +20°C° 0.2 mm 3 m/s 750 mmHg 67%
18:00 +19°C° 0.2 mm 3 m/s 750 mmHg 73%
19:00 +18°C° 0.5 mm 3 m/s 750 mmHg 79%
20:00 +17°C° 0.5 mm 3 m/s 750 mmHg 85%
21:00 +16°C° 0.5 mm 3 m/s 751 mmHg 91%
22:00 +14°C° 1 mm 3 m/s 751 mmHg 93%
23:00 +14°C° 1 mm 3 m/s 751 mmHg 95%

8 Agosto, Domingo

Tempo Temperatura Precipitação Vento Pressão Humidade
00:00 +14°C° 1 mm 3 m/s 751 mmHg 97%
01:00 +14°C° 0.5 mm 3 m/s 751 mmHg 97%
02:00 +14°C° 0.5 mm 4 m/s 751 mmHg 96%
03:00 +14°C° 0.5 mm 4 m/s 751 mmHg 96%
04:00 +14°C° 0 mm 5 m/s 751 mmHg 95%
05:00 +14°C° 0 mm 5 m/s 751 mmHg 95%
06:00 +14°C° 0 mm 5 m/s 752 mmHg 94%
07:00 +15°C° 0.4 mm 5 m/s 752 mmHg 93%
08:00 +15°C° 0.4 mm 6 m/s 752 mmHg 91%
09:00 +16°C° 0.4 mm 6 m/s 753 mmHg 90%
10:00 +16°C° 1.1 mm 6 m/s 753 mmHg 89%
11:00 +17°C° 1.1 mm 6 m/s 754 mmHg 88%
12:00 +17°C° 1.1 mm 6 m/s 754 mmHg 87%
13:00 +17°C° 0.6 mm 6 m/s 755 mmHg 85%
14:00 +17°C° 0.6 mm 6 m/s 755 mmHg 83%
15:00 +19°C° 0.6 mm 6 m/s 756 mmHg 81%
16:00 +17°C° 0.2 mm 6 m/s 756 mmHg 79%
17:00 +17°C° 0.2 mm 5 m/s 757 mmHg 77%
18:00 +17°C° 0.2 mm 5 m/s 757 mmHg 76%
19:00 +17°C° 0 mm 4 m/s 757 mmHg 78%
20:00 +15°C° 0 mm 4 m/s 758 mmHg 81%
21:00 +13°C° 0 mm 4 m/s 758 mmHg 84%
22:00 +13°C° 0 mm 4 m/s 758 mmHg 85%
23:00 +13°C° 0 mm 4 m/s 758 mmHg 86%

9 Agosto, Segunda-feira

Tempo Temperatura Precipitação Vento Pressão Humidade
00:00 +13°C° 0 mm 5 m/s 759 mmHg 87%
01:00 +13°C° 0 mm 5 m/s 759 mmHg 89%
02:00 +12°C° 0 mm 5 m/s 759 mmHg 91%
03:00 +12°C° 0 mm 5 m/s 759 mmHg 92%
04:00 +13°C° 0.1 mm 5 m/s 759 mmHg 92%
05:00 +13°C° 0.1 mm 5 m/s 759 mmHg 92%
06:00 +14°C° 0.1 mm 5 m/s 759 mmHg 92%
07:00 +14°C° 1.3 mm 5 m/s 759 mmHg 93%
08:00 +14°C° 1.3 mm 5 m/s 759 mmHg 94%
09:00 +14°C° 1.3 mm 5 m/s 760 mmHg 96%
10:00 +15°C° 0.9 mm 5 m/s 760 mmHg 92%
11:00 +16°C° 0.9 mm 5 m/s 760 mmHg 89%
12:00 +19°C° 0.9 mm 5 m/s 760 mmHg 85%
13:00 +19°C° 0.6 mm 5 m/s 760 mmHg 83%
14:00 +19°C° 0.6 mm 5 m/s 761 mmHg 81%
15:00 +20°C° 0.6 mm 5 m/s 761 mmHg 79%
16:00 +19°C° 0.2 mm 4 m/s 761 mmHg 80%
17:00 +19°C° 0.2 mm 4 m/s 761 mmHg 82%
18:00 +18°C° 0.2 mm 3 m/s 761 mmHg 84%
19:00 +17°C° 0 mm 3 m/s 762 mmHg 87%
20:00 +16°C° 0 mm 3 m/s 762 mmHg 91%
21:00 +14°C° 0 mm 3 m/s 762 mmHg 94%
22:00 +14°C° 0 mm 3 m/s 763 mmHg 95%
23:00 +14°C° 0 mm 3 m/s 763 mmHg 96%

10 Agosto, Terça-feira

Tempo Temperatura Precipitação Vento Pressão Humidade
00:00 +14°C° 0 mm 3 m/s 763 mmHg 97%
01:00 +14°C° 0 mm 3 m/s 763 mmHg 97%
02:00 +14°C° 0 mm 3 m/s 763 mmHg 97%
03:00 +14°C° 0 mm 3 m/s 763 mmHg 97%
04:00 +14°C° 0 mm 3 m/s 763 mmHg 97%
05:00 +15°C° 0 mm 4 m/s 763 mmHg 97%
06:00 +15°C° 0 mm 4 m/s 763 mmHg 97%
07:00 +17°C° 0 mm 4 m/s 763 mmHg 95%
08:00 +18°C° 0 mm 4 m/s 763 mmHg 93%
09:00 +18°C° 0 mm 4 m/s 764 mmHg 91%
10:00 +19°C° 0.3 mm 4 m/s 764 mmHg 87%
11:00 +20°C° 0.3 mm 5 m/s 763 mmHg 83%
12:00 +21°C° 0.3 mm 5 m/s 763 mmHg 79%
13:00 +22°C° 0.2 mm 5 m/s 763 mmHg 76%
14:00 +22°C° 0.2 mm 5 m/s 763 mmHg 73%
15:00 +22°C° 0.2 mm 5 m/s 763 mmHg 70%
16:00 +22°C° 0 mm 4 m/s 763 mmHg 73%
17:00 +21°C° 0 mm 3 m/s 763 mmHg 76%
18:00 +21°C° 0 mm 3 m/s 763 mmHg 79%
19:00 +19°C° 0 mm 2 m/s 763 mmHg 83%
20:00 +18°C° 0 mm 2 m/s 763 mmHg 88%
21:00 +17°C° 0 mm 2 m/s 764 mmHg 92%
22:00 +17°C° 0 mm 2 m/s 763 mmHg 93%
23:00 +16°C° 0 mm 2 m/s 763 mmHg 93%
Mostrar mais